Regional Weather Roundup
Issued by NWS Bismarck, ND

Home | Current Version | Previous Version | Text Only | Print | Product List | Glossary On
Versions: 1 2 3 4 5 6 7 8 9 10 11 12 13 14 15 16 17 18 19 20 21 22 23 24 25 26 27 28 29 30 31 32 33 34 35 36 37 38 39 40 41 42 43 44 45 46 47 48 49 50
000
ASUS43 KBIS 221810
RWRBIS

NWR BROADCAST TEXT
NATIONAL WEATHER SERVICE BISMARCK ND
1200 PM CST WED FEB 22 2017

NOTE: "FAIR" INDICATES FEW OR NO CLOUDS BELOW 12,000 FEET WITH NO
SIGNIFICANT WEATHER AND/OR OBSTRUCTIONS TO VISIBILITY.


CITY           SKY/WX    TMP DP  RH WIND       PRES   REMARKS
WILLISTON      CLOUDY    31  26  82 N8        29.91R
MINOT          CLOUDY    33  28  81 N16       29.85R
MINOT AFB      CLOUDY    32  27  84 N12       29.85R
BISMARCK       LGT SNOW  35  32  88 N13       29.79R FOG
DICKINSON      LGT SNOW  30  27  88 N13       29.81R FOG     WCI  20
GARRISON         N/A     31  29  92 N7        29.83R
HETTINGER ARPT CLOUDY    33  30  88 N16G23    29.80R
JAMESTOWN      LGT SNOW  33  32  96 N13       29.74R VSB 3/4
CARRINGTON     LGT RAIN  32  32 100 NE16      29.80R
HAZEN          HVY SNOW N/A N/A N/A N12       29.85R
MANDAN         LGT SNOW  32  32 100 N16       29.80R
RUGBY            N/A     32  30  93 NE13      29.84R
STANLEY        CLOUDY    30  30 100 N13       29.88R
TIOGA          CLOUDY    28  28 100 N12       29.90R WCI  18
WATFORD CITY   CLOUDY    30  28  93 N13       29.89R
$$

CITY           SKY/WX    TMP DP  RH WIND       PRES   REMARKS
GRAND FORKS    CLOUDY    35  28  75 N21       29.77R
GRAND FORKS AF CLOUDY    34  32  93 N16G25    29.78R
DEVILS LAKE    CLOUDY    31  27  85 NE21      29.81S WCI  18
FARGO          LGT RAIN  36  34  92 N15       29.69R FOG
CAVALIER         N/A     32  28  86 N7        29.84R
GRAFTON        MOCLDY    32  30  93 N14       29.82S
GWINNER        CLOUDY    34  34 100 NW14      29.73R
ROLLA          CLOUDY    28  28 100 N14       29.84R WCI  17
$$

CITY           SKY/WX    TMP DP  RH WIND       PRES   REMARKS
ABERDEEN       PTSUNNY   42  35  76 N14       29.69R
MOBRIDGE       CLOUDY    40  34  79 NW15      29.72R
BUFFALO          N/A     37  33  85 NW21      29.73R
RAPID CITY     FAIR      55  22  27 NW28G36   29.74F
GLASGOW        CLOUDY    31  26  82 VRB5      29.94R HAZE
SIDNEY         CLOUDY    32  28  85 N13       29.91R
WOLF POINT     CLOUDY    34  24  67 N13       29.94S
GLENDIVE       FLURRIES  30  28  92 N12       29.90R
MILES CITY     LGT SNOW  34  32  92 N9        29.90R FOG
BAKER          CLOUDY    32  30  92 N13       29.85R
$$

CITY           SKY/WX    TMP DP  RH WIND       PRES   REMARKS
BILLINGS       CLOUDY    38  31  76 N9        29.90R
GREAT FALLS    CLOUDY    36  29  75 CALM      29.89R
REGINA         PTSUNNY   32  27  80 W13       29.92R
ESTEVAN        CLOUDY    30  25  80 NW8       29.90S
$$




USA.gov is the U.S. government's official web portal to all federal, state and local government web resources and services.